Weather Roundup
Issued by NWS

Home | Current Version | Previous Version | Graphics & Text | Print | Product List | Glossary Off
Versions: 1 2 3 4 5 6 7 8 9 10 11 12 13 14 15 16 17 18 19 20 21 22 23 24 25 26 27 28 29 30 31 32 33 34 35 36 37 38 39 40 41 42 43 44 45 46 47 48 49 50

551
NZUS93 KARX 210710
HRRWXR

CURRENT HOURLY OBSERVATIONS ACROSS
MUCH OF THE UPPER MISSISSIPPI VALLEY
NATIONAL WEATHER SERVICE LA CROSSE WI
200 AM CDT SAT APR 21 2018


...SOUTHEAST MINNESOTA...


CITY           SKY/WX    TMP DP  RH WIND       PRES   REMARKS
ROCHESTER      FAIR      36  25  64 NE6       30.40F WCI  31
ROCHESTER/MAYO FAIR      37  27  68 CALM      30.41F
WINONA         FAIR      34  30  86 CALM      30.41F
AUSTIN         FAIR      36  25  64 CALM      30.39F
ALBERT LEA     CLOUDY    36  27  69 CALM      30.40R
DODGE CENTER   FAIR      36  27  69 NE3       30.40F
PRESTON        FAIR      34  22  61 NE3       30.40F
OWATONNA       FAIR      34  30  86 CALM      30.40F
FARIBAULT      FAIR      34  28  80 CALM      30.40F
$$

...ELSEWHERE IN MINNESOTA...


CITY           SKY/WX    TMP DP  RH WIND       PRES   REMARKS
MINNEAPOLIS    FAIR      39  27  62 CALM      30.41F
INTNL FALLS    FAIR      29  24  82 CALM      30.35F
DULUTH         FAIR      40  19  43 NW6       30.38F
RED WING       FAIR      30  25  80 CALM      30.41F
REDWOOD FALLS  CLOUDY    34  29  82 S6        30.39R WCI  29
MANKATO        FAIR      36  28  73 E5        30.41S WCI  32
WORTHINGTON    LGT RAIN  35  30  82 SE6       30.38S WCI  30
FAIRMONT       CLOUDY    37  28  70 SE3       30.40S
$$

...SOUTHWEST WISCONSIN...


CITY           SKY/WX    TMP DP  RH WIND       PRES   REMARKS
LA CROSSE      FAIR      37  28  70 CALM      30.42F
PRAIRIE DU CHI FAIR      35  30  80 CALM      30.42F
BOSCOBEL       FAIR      32  29  88 CALM      30.43F
LONE ROCK      FAIR      32  28  85 CALM      30.43F
PLATTEVILLE    FAIR      41  30  65 E9        30.41S
FORT MC COY    FAIR      26  22  85 CALM      30.44F
CAMP DOUGLAS   FAIR      27  22  83 CALM      30.42F HAZE
MAUSTON-NEW LI FAIR      28  22  77 CALM      30.42F
VIROQUA        FAIR      40  21  46 E6        30.41F
WIS DELLS      FAIR      31  19  62 CALM      30.42F
$$

...ELSEWHERE IN WISCONSIN...


CITY           SKY/WX    TMP DP  RH WIND       PRES   REMARKS
MILWAUKEE      FAIR      38  20  48 CALM      30.44F
MADISON        FAIR      31  24  75 CALM      30.42F
GREEN BAY      FAIR      30  23  75 CALM      30.44S
EAU CLAIRE     FAIR      30  22  72 CALM      30.41F
BLACK RVR FLS  FAIR      23  19  84 CALM      30.42F
MEDFORD        FAIR      27  21  76 CALM      30.40F
WAUSAU         FAIR      29  21  72 CALM      30.40F
WIS RAPIDS     FAIR      29  18  63 CALM      30.43F
MARSHFIELD     FAIR      32  21  64 CALM      30.40F
RICE LAKE      FAIR      29  25  86 CALM      30.43F
$$

...NORTHEAST IOWA...


CITY           SKY/WX    TMP DP  RH WIND       PRES   REMARKS
WATERLOO       FAIR      42  32  67 E7        30.39S
DUBUQUE        FAIR      42  29  59 NE9       30.39F
DECORAH        MOCLDY    37  27  65 CALM      30.39F
MASON CITY     CLOUDY    35  29  78 NE3       30.41R
CHARLES CITY   CLOUDY    39  27  60 NE6       30.40R WCI  35
OELWEIN        CLOUDY    43  34  70 NE7       30.40R
$$

...ELSEWHERE IN IOWA...


CITY           SKY/WX    TMP DP  RH WIND       PRES   REMARKS
DES MOINES     CLOUDY    51  23  33 E5        30.35R
IOWA CITY      FAIR      46  33  60 CALM      30.40R
FORT DODGE     CLOUDY    41  32  70 CALM      30.39R
MARSHALLTOWN   CLOUDY    43  35  73 NE10      30.34F
CEDAR RAPIDS   FAIR      48  25  40 E3        30.38R
$$

...NORTHERN ILLINOIS...


CITY           SKY/WX    TMP DP  RH WIND       PRES   REMARKS
CHICAGO-OHARE  MOCLDY    42  19  39 CALM      30.43F
CHICAGO-MIDWAY MOCLDY    43  19  38 E5        30.44F
MOLINE         FAIR      45  31  58 E7        30.38F
ROCKFORD       MOCLDY    41  19  41 CALM      30.43F
PEORIA         FAIR      49  23  36 E8        30.38F
$$

NOTE: "FAIR" INDICATES FEW OR NO CLOUDS BELOW 12,000 FEET WITH NO
SIGNIFICANT WEATHER AND/OR OBSTRUCTIONS TO VISIBILITY. WIND
SPEEDS ARE IN MILES-PER-HOUR.




USA.gov is the U.S. government's official web portal to all federal, state and local government web resources and services.